STARLINK-11510, 62516

Orbit data source: Space-Track

STARLINK-11510, 62516 is a payload satellite owned by SpaceX/Seattle (US) in LEO that was launched on Wed, 08 Jan 2025 UTC via an FALCON 9 launch vehicle from the Air Force Eastern Test Range (AFETR). Payload-class satellites include a variety of spacecraft equipped with specific instruments for various scientific and technological missions. These include communications satellites like Starlink; space stations such as the ISS; scientific satellites like the Hubble; Earth observation satellites from companies like Planet Labs, Umbra, and HawkEye 360; GPS; miniature CubeSats for education and research; and military/defense satellites.

Loading next visibility...
Identifier
62516, 2025-004F
Orbit
LEO
Last TLE update
5 hours ago
Origin
Manufacturer
SpaceX/Seattle
Mission
Operational Commercial Communications
Bus & Motor
STARLINK V2M, Unknown motor
Mass
730 kg wet, ~700 kg dry
Launch date (UTC)
2025-01-08 (6 months ago)
Launch vehicle
FALCON 9
Launch site
Air Force Eastern Test Range (AFETR)
Object type
Payload
Rocket body
Debris
Shape & HBR
Box + 2 Pan, 29 m
Radar Cross Section
36.964 m², Large (>1 m²)

Expand to show TLE details & history

TLE from 5 hours ago
0 STARLINK-11510
1 62516U 25004F   25182.20652821  .00197530  00000-0  15050-2 0  9993
2 62516  43.0015 146.8651 0002345 281.5064  78.5540 15.70864346 28571
Epoch: 2025-07-01T04:57Z
TLE epoch observation values (Epoch: 2025-07-01T04:57:24.037Z)
Latitude
-0.00003°
Longitude
153.0096°
Altitude
355.884 km
Speed
7.698 km/s
True Right ascension
09h 47m 27s
True Declination
0° 00' 00"
Sunlit
Object was in daylight at epoch
Visualization orbit readout
Latitude
15.9874°
Longitude
169.62229°
Altitude
355.6 km
Speed
7.699 km/s
Apparent Right ascension
10h 12m 00s
Apparent Declination
-11° 19' 31"
Sunlit
Object is in daylight
Visualization observer readout
Local Sidereal Time
21:16:24
Azimuth
332.886° NNW
Elevation
-58.873°
Doppler factor
1
Orbital elements
Apogee altitude
359.987 km
Perigee altitude
356.827 km
Semi-major axis
6,736.544 km
Eccentricity
0.00023
Inclination
43.0015°
RAAN
146.8651°
Arg. of periapsis
281.5064°
True anomaly
Unknown
Mean anomaly
78.554°
Eccentric anomaly
Unknown
Mean motion
3.92543 °/min
Orbital period
91.71 mins
BSTAR
0.001505
Loading maneuver chart data...
Loading SW <> Apogee altitude chart data...
Loading historical data...
Loading historical data...
Loading historical data...
Loading historical data...
Loading historical data...
Loading historical data...
Loading historical data...

STARLINK-11510 Visibility forecast

Observer location: undefined°, undefined°

Span
Click to sort rows by Start time (UTC) header in descending order
Start Az.
Max El. time (UTC)
Max El. Az.
Max El.
End time (UTC)
End Az.
5 mins2025-07-02 01:00:05.209Z219.043° SW2025-07-02 01:03:05.209Z134.092° SE28.552°2025-07-02 01:05:05.209Z87.448° E
4 mins2025-07-02 02:37:05.209Z275.255° WNW2025-07-02 02:39:05.209Z22.712° NE38.206°2025-07-02 02:41:05.209Z66.454° ENE
4 mins2025-07-02 05:50:05.209Z272.015° WNW2025-07-02 05:51:05.209Z218.873° SW41.258°2025-07-02 05:54:05.209Z121.3° SE
|